AirNav   Air Wisconsin pilot careers
 
 660 users online  

65WN Whoopy Hollow Aerodrome
Wiota, Wisconsin, USA

GOING TO WIOTA?


FAA INFORMATION EFFECTIVE 26 APRIL 2018

Location

FAA Identifier: 65WN
Lat/Long: 42-40-35.2132N / 089-56-16.7465W
42-40.586887N / 089-56.279108W
42.6764481 / -89.9379851
(estimated)
Elevation: 925 ft. / 282 m (estimated)
Variation: 01W (2000)
From city: 3 miles N of WIOTA, WI
Time zone: UTC -5 (UTC -6 during Standard Time)
Zip code: 53504

Airport Operations

Airport use: Private use. Permission required prior to landing
Activation date: 06/2002
Control tower: no
ARTCC: CHICAGO CENTER
FSS: GREEN BAY FLIGHT SERVICE STATION
Attendance: UNATNDD
Wind indicator: yes
Segmented circle: no

Airport Communications

WX AWOS-3 at EFT (16 nm E): 118.375 (608-328-8359)
WX AWOS-3 at MRJ (18 nm NW): 118.525 (608-987-2157)

Nearby radio navigation aids

VOR radial/distance  VOR name  Freq  Var
JVLr278/37.4JANESVILLE VOR/DME114.3003E
DBQr060/37.9DUBUQUE VORTAC115.8004E
LNRr167/38.1LONE ROCK VOR/DME112.8000E
MSNr220/38.5MADISON VORTAC108.6003E

Airport Services

Runway Information

Runway 13/31

Dimensions: 1800 x 75 ft. / 549 x 23 m
Surface: turf
RUNWAY 13  RUNWAY 31
Traffic pattern: leftleft

Airport Ownership and Management from official FAA records

Ownership: Privately-owned
Owner: MICHAEL & BARBARA DINGES
6062 WHITESIDE RD.
ARGYLE, WI 53504
Phone 608-553-3466
Manager: MICHAEL & BARBARA DINGES
6062 WHITESIDE RD.
ARGYLE, WI 53504
Phone 608-553-3466

Airport Operational Statistics

Aircraft based on the field: 2
Single engine airplanes: 2
    

Instrument Procedures

There are no published instrument procedures at 65WN.

Some nearby airports with instrument procedures:

KEFT - Monroe Municipal Airport (16 nm E)
KMRJ - Iowa County Airport (18 nm NW)
KPVB - Platteville Municipal Airport (22 nm W)
KFEP - Albertus Airport (30 nm SE)
C29 - Middleton Municipal Airport - Morey Field (32 nm NE)
 
Loc | Ops | Rwys | IFR | FBO | Links
Com | Nav | Svcs | Stats | Notes

AirNav Hotels Sweepstakes
 
Area around 65WN (Whoopy Hollow Aerodrome)
 
Road maps at: MapQuest Bing Google
 
Aerial photo
No photo
 
Sectional chart

 
Airport distance calculator
Flying to Whoopy Hollow Aerodrome? Find the distance to fly.

From to 65WN

Sunrise and sunset
Times for 23-May-2018
 Local
(UTC-5)
 Zulu
(UTC)
Morning civil twilight04:5809:58
Sunrise05:3110:31
Sunset20:2201:22
Evening civil twilight20:5501:55

Current date and time
Zulu (UTC)  24-May-2018 04:46:57
Local (UTC-5)  23-May-2018 23:46:57
 
METAR
KEFT 
16nm E 
240435Z AUTO 16007KT 10SM CLR 20/13 A3018 RMK AO2
KMRJ 
17nm NW 
240435Z AUTO 14004KT 10SM CLR 20/16 A3017 RMK AO2
KPVB 
22nm W 
240435Z AUTO 11006KT 10SM CLR 20/16 A3017 RMK AO1 T02000161
KFEP 
30nm SE 
240435Z AUTO 00000KT 10SM CLR 17/15 A3019 RMK AO2 T01710149
KC29 
32nm NE 
240435Z AUTO 00000KT 10SM CLR 16/16 A3017 RMK AO1 T01600156
TAF
KDBQ 
38nm SW 
231739Z 2318/2418 16008KT P6SM BKN060 FM232000 15006KT P6SM SCT100 FM240200 13004KT P6SM SKC FM241500 18008KT P6SM SCT250
KMSN 
38nm NE 
231935Z 2320/2418 18005KT P6SM SCT250 FM240100 VRB04KT P6SM SCT250 FM241200 18005KT P6SM FEW200
KRFD 
47nm SE 
240257Z 2403/2424 13005KT P6SM FEW250 FM241400 19007KT P6SM FEW150 FM241900 18010KT P6SM SCT050 SCT150
NOTAMs
Click for the latest NOTAMs
NOTAMs are issued by the DoD/FAA and will open in a separate window not controlled by AirNav.

 

 
 

Would you like to see your business listed on this page?

 If your business provides an interesting product or service to pilots, flight crews, aircraft, or users of the Whoopy Hollow Aerodrome, you should consider listing it here.  To start the listing process, click on the button below
 
Add a business
 

Other Pages about Whoopy Hollow Aerodrome

Update a link
 
Copyright © AirNav, LLC. All rights reserved. Privacy Policy  Contact